QPF
0.01 0.02 0.00 0.00 0.00 0.00 0.00 0.00 0.00 0.00 0.00 0.00 0.00 0.00 0.00 0.00 0.00 0.00 0.00 0.00 0.00 0.00 0.00 0.00 0.00 0.00 0.00 0.00 0.00 0.00 0.00 0.00 0.00 0.00 0.00 0.00 0.00 0.00 0.00 0.00 0.00 0.00 0.00 0.00
0.03 0.01 0.00 0.00 0.00 0.00 0.00 0.00 0.00 0.00 0.00 0.00 0.00 0.00 0.00 0.00 0.00 0.00 0.00 0.00 0.00 0.00 0.00 0.00 0.00 0.00 0.00 0.00 0.00 0.00 0.00 0.00 0.00 0.00 0.00 0.00 0.00 0.00 0.00 0.00 0.00 0.00 0.00 0.00
0.02 0.00 0.00 0.00 0.00 0.00 0.00 0.00 0.00 0.00 0.00 0.00 0.00 0.00 0.00 0.00 0.00 0.00 0.00 0.00 0.00 0.00 0.00 0.00 0.00 0.00 0.00 0.00 0.00 0.00 0.00 0.00 0.00 0.00 0.00 0.00 0.00 0.00 0.00 0.00 0.00 0.00 0.00 0.00
0.01 0.00 0.00 0.00 0.00 0.00 0.00 0.00 0.00 0.00 0.00 0.00 0.00 0.00 0.00 0.00 0.00 0.00 0.00 0.00 0.00 0.00 0.00 0.00 0.00 0.00 0.00 0.00 0.00 0.00 0.00 0.00 0.00 0.00 0.00 0.00 0.00 0.00 0.00 0.00 0.00 0.00 0.00 0.00
0.01 0.00 0.00 0.00 0.00 0.00 0.00 0.00 0.00 0.00 0.00 0.00 0.00 0.00 0.00 0.00 0.00 0.00 0.00 0.00 0.00 0.00 0.00 0.00 0.00 0.00 0.00 0.00 0.00 0.00 0.00 0.00 0.00 0.00 0.00 0.00 0.00 0.00 0.00 0.00 0.00 0.00 0.00 0.00
0.00 0.00 0.00 0.00 0.00 0.00 0.00 0.00 0.01 0.01 0.01 0.01 0.00 0.00 0.00 0.00 0.00 0.00 0.00 0.00 0.00 0.00 0.00 0.00 0.00 0.00 0.00 0.00 0.00 0.00 0.00 0.00 0.00 0.00 0.00 0.00 0.00 0.00 0.00 0.00 0.00 0.00 0.00 0.00
0.00 0.00 0.00 0.01 0.01 0.01 0.01 0.02 0.03 0.03 0.03 0.00 0.00 0.00 0.00 0.00 0.00 0.00 0.00 0.00 0.00 0.00 0.00 0.00 0.00 0.00 0.00 0.00 0.00 0.00 0.00 0.00 0.00 0.00 0.00 0.00 0.00 0.00 0.00 0.00 0.00 0.00 0.00 0.00
0.00 0.00 0.00 0.00 0.01 0.01 0.00 0.00 0.01 0.00 0.00 0.00 0.00 0.00 0.00 0.00 0.00 0.00 0.00 0.00 0.00 0.00 0.00 0.00 0.00 0.00 0.00 0.00 0.00 0.00 0.00 0.00 0.00 0.00 0.00 0.00 0.00 0.00 0.00 0.00 0.00 0.00 0.00 0.00
0.01 0.00 0.00 0.00 0.00 0.00 0.00 0.01 0.01 0.01 0.00 0.00 0.00 0.00 0.00 0.00 0.00 0.00 0.00 0.00 0.00 0.00 0.00 0.00 0.00 0.00 0.00 0.00 0.00 0.00 0.00 0.00 0.00 0.00 0.00 0.00 0.00 0.00 0.00 0.00 0.00 0.00 0.00 0.00
0.01 0.01 0.00 0.00 0.00 0.00 0.00 0.00 0.01 0.01 0.00 0.01 0.00 0.00 0.00 0.00 0.00 0.00 0.00 0.00 0.00 0.00 0.00 0.00 0.00 0.00 0.00 0.00 0.00 0.00 0.00 0.00 0.00 0.00 0.00 0.00 0.00 0.00 0.00 0.00 0.00 0.00 0.00 0.00
0.01 0.00 0.00 0.00 0.00 0.00 0.00 0.00 0.00 0.00 0.00 0.00 0.00 0.00 0.00 0.00 0.00 0.00 0.00 0.00 0.00 0.00 0.00 0.00 0.00 0.00 0.00 0.00 0.00 0.00 0.00 0.00 0.00 0.00 0.00 0.00 0.00 0.00 0.00 0.00 0.00 0.00 0.00 0.00
0.00 0.00 0.00 0.00 0.00 0.00 0.00 0.00 0.00 0.01 0.00 0.01 0.01 0.00 0.00 0.00 0.00 0.00 0.00 0.00 0.00 0.00 0.00 0.00 0.00 0.00 0.00 0.00 0.00 0.00 0.00 0.00 0.00 0.00 0.00 0.00 0.00 0.00 0.00 0.00 0.00 0.00 0.00 0.00
0.00 0.00 0.00 0.00 0.00 0.00 0.01 0.00 0.00 0.01 0.02 0.01 0.01 0.00 0.00 0.00 0.00 0.00 0.00 0.00 0.00 0.00 0.00 0.00 0.00 0.00 0.00 0.00 0.00 0.00 0.00 0.00 0.00 0.00 0.00 0.00 0.00 0.00 0.00 0.00 0.00 0.00 0.00 0.00
0.01 0.00 0.00 0.00 0.00 0.00 0.00 0.00 0.00 0.01 0.02 0.01 0.00 0.00 0.00 0.00 0.00 0.00 0.00 0.00 0.00 0.00 0.00 0.00 0.00 0.00 0.00 0.00 0.00 0.00 0.00 0.00 0.00 0.00 0.00 0.00 0.00 0.00 0.00 0.00 0.00 0.00 0.00 0.00
0.01 0.00 0.00 0.00 0.00 0.00 0.00 0.00 0.00 0.00 0.00 0.01 0.00 0.00 0.00 0.00 0.00 0.00 0.00 0.00 0.00 0.00 0.00 0.00 0.00 0.00 0.00 0.00 0.00 0.00 0.00 0.00 0.00 0.00 0.00 0.00 0.00 0.00 0.00 0.00 0.00 0.00 0.00 0.00
0.00 0.00 0.00 0.00 0.00 0.00 0.00 0.00 0.00 0.00 0.00 0.00 0.00 0.00 0.00 0.00 0.00 0.00 0.00 0.00 0.00 0.00 0.00 0.00 0.00 0.00 0.00 0.00 0.00 0.00 0.00 0.00 0.00 0.00 0.00 0.00 0.00 0.00 0.00 0.00 0.00 0.00 0.00 0.00
0.00 0.00 0.00 0.00 0.00 0.00 0.00 0.00 0.00 0.00 0.00 0.00 0.00 0.00 0.00 0.00 0.00 0.00 0.00 0.00 0.00 0.00 0.00 0.00 0.00 0.00 0.00 0.00 0.00 0.00 0.00 0.00 0.00 0.00 0.00 0.00 0.00 0.00 0.00 0.00 0.00 0.00 0.00 0.00
0.00 0.00 0.00 0.00 0.00 0.00 0.00 0.00 0.00 0.00 0.00 0.00 0.00 0.00 0.00 0.00 0.00 0.00 0.00 0.00 0.00 0.00 0.00 0.00 0.00 0.00 0.00 0.00 0.00 0.00 0.00 0.00 0.00 0.00 0.00 0.00 0.00 0.00 0.00 0.00 0.00 0.00 0.00 0.00
0.00 0.00 0.00 0.00 0.00 0.00 0.00 0.00 0.00 0.00 0.00 0.00 0.00 0.00 0.00 0.00 0.00 0.00 0.00 0.00 0.00 0.00 0.00 0.00 0.00 0.00 0.00 0.00 0.00 0.00 0.00 0.00 0.00 0.00 0.00 0.00 0.00 0.00 0.00 0.00 0.00 0.00 0.00 0.00
0.00 0.00 0.00 0.00 0.00 0.00 0.00 0.00 0.00 0.00 0.00 0.00 0.00 0.00 0.00 0.00 0.00 0.00 0.00 0.00 0.00 0.00 0.00 0.00 0.00 0.00 0.00 0.00 0.00 0.00 0.00 0.00 0.00 0.00 0.00 0.00 0.00 0.00 0.00 0.00 0.00 0.00 0.00 0.00
0.00 0.00 0.00 0.00 0.00 0.00 0.00 0.00 0.00 0.00 0.00 0.00 0.00 0.00 0.00 0.00 0.00 0.00 0.00 0.00 0.00 0.00 0.00 0.00 0.00 0.00 0.00 0.00 0.00 0.00 0.00 0.00 0.00 0.00 0.00 0.00 0.00 0.00 0.00 0.00 0.00 0.00 0.00 0.00
0.00 0.00 0.00 0.00 0.00 0.00 0.00 0.00 0.00 0.00 0.00 0.00 0.00 0.00 0.00 0.00 0.00 0.00 0.00 0.00 0.00 0.00 0.00 0.00 0.00 0.00 0.00 0.00 0.00 0.00 0.00 0.00 0.00 0.00 0.00 0.00 0.00 0.00 0.00 0.00 0.00 0.00 0.00 0.00
0.00 0.00 0.00 0.00 0.00 0.00 0.00 0.00 0.00 0.00 0.00 0.00 0.00 0.00 0.00 0.00 0.00 0.00 0.00 0.00 0.00 0.00 0.00 0.00 0.00 0.00 0.00 0.00 0.00 0.00 0.00 0.00 0.00 0.00 0.00 0.00 0.00 0.00 0.00 0.00 0.00 0.00 0.00 0.00
0.00 0.00 0.00 0.00 0.00 0.00 0.00 0.00 0.00 0.00 0.00 0.00 0.00 0.00 0.00 0.00 0.00 0.00 0.00 0.00 0.00 0.00 0.00 0.00 0.00 0.00 0.00 0.00 0.00 0.00 0.00 0.00 0.00 0.00 0.00 0.00 0.00 0.00 0.00 0.00 0.00 0.00 0.00 0.00
0.00 0.00 0.00 0.00 0.00 0.00 0.00 0.00 0.00 0.00 0.00 0.00 0.00 0.00 0.00 0.00 0.00 0.00 0.00 0.00 0.00 0.00 0.00 0.00 0.00 0.00 0.00 0.00 0.00 0.00 0.00 0.00 0.00 0.00 0.00 0.00 0.00 0.00 0.00 0.00 0.00 0.00 0.00 0.00
0.00 0.00 0.00 0.00 0.00 0.00 0.00 0.00 0.00 0.00 0.00 0.00 0.00 0.00 0.00 0.00 0.00 0.00 0.00 0.00 0.00 0.00 0.00 0.00 0.00 0.00 0.00 0.00 0.00 0.00 0.00 0.00 0.00 0.00 0.00 0.00 0.00 0.00 0.00 0.00 0.00 0.00 0.00 0.00
MSLP
1009.00 1009.42 1008.38 1007.87 1007.96 1007.71 1008.44 1008.71 1008.30 1007.33 1007.05 1006.72 1005.74 1004.57 1005.00 1005.10 1005.31 1005.53 1005.56 1005.71 1005.68 1005.13 1005.07 1005.70 1006.38 1006.92 1007.55 1008.14 1008.72 1009.36 1010.26 1011.23 1012.08 1013.36 1014.30 1015.04 1015.43 1015.87 1016.25 1016.69 1016.68 1017.04 1017.56 1018.04
1008.38 1007.22 1006.91 1006.81 1007.80 1008.18 1008.21 1008.19 1007.70 1007.45 1007.19 1006.87 1005.69 1004.34 1004.91 1004.55 1004.16 1004.42 1004.88 1004.90 1005.21 1004.98 1005.06 1005.35 1005.86 1006.59 1006.85 1007.25 1007.92 1008.73 1009.34 1010.23 1011.16 1011.99 1013.08 1014.16 1014.94 1015.68 1015.90 1016.24 1016.68 1016.83 1017.23 1017.75
1007.50 1005.78 1005.71 1006.60 1007.00 1007.47 1007.25 1007.39 1007.13 1007.22 1007.00 1006.59 1006.38 1004.82 1004.65 1004.36 1003.91 1003.84 1003.68 1003.60 1004.08 1004.44 1004.84 1005.15 1005.72 1006.00 1006.62 1006.98 1007.29 1007.87 1008.66 1009.50 1010.47 1011.53 1012.77 1013.84 1015.08 1015.73 1016.23 1016.27 1016.42 1016.71 1016.96 1017.44
1006.85 1005.53 1005.91 1006.05 1005.94 1006.69 1006.20 1006.47 1006.73 1007.56 1007.73 1006.62 1006.45 1004.27 1003.92 1003.43 1003.54 1003.22 1002.47 1003.02 1003.16 1003.34 1003.78 1004.17 1004.62 1005.42 1005.77 1006.06 1006.83 1007.50 1008.37 1009.22 1010.24 1011.07 1011.95 1012.75 1013.59 1014.93 1015.30 1015.68 1016.16 1016.55 1016.95 1017.37
1005.54 1004.98 1004.93 1005.21 1004.33 1004.97 1005.24 1005.84 1006.63 1007.30 1007.38 1007.30 1006.76 1005.64 1003.04 1003.29 1002.92 1001.97 1001.25 1001.82 1001.75 1001.61 1001.96 1002.58 1003.34 1003.48 1003.73 1005.05 1005.98 1006.92 1008.01 1008.99 1009.77 1010.57 1011.32 1012.32 1013.30 1013.98 1014.70 1015.53 1016.12 1016.56 1017.02 1017.25
1005.36 1004.62 1005.11 1004.34 1004.56 1004.91 1004.64 1005.95 1006.50 1007.03 1007.15 1005.99 1005.24 1005.63 1001.60 1002.64 1001.20 1001.28 1000.85 1000.61 1000.55 1000.42 1000.41 1001.03 1001.37 1002.66 1003.85 1004.89 1005.77 1006.56 1007.37 1008.44 1009.29 1010.14 1011.00 1011.80 1012.74 1013.54 1014.32 1015.21 1015.98 1016.57 1016.98 1017.34
1004.94 1004.40 1004.74 1004.79 1005.10 1004.75 1004.80 1005.52 1005.84 1006.24 1006.07 1004.62 1004.34 1004.78 1001.77 1000.92 1000.58 1000.71 1000.43 999.78 999.65 999.75 1000.08 1000.42 1001.35 1002.31 1003.48 1004.47 1005.49 1006.47 1007.38 1008.34 1009.11 1009.94 1010.79 1011.55 1012.40 1013.16 1013.76 1014.51 1015.32 1016.19 1016.91 1017.20
1004.65 1003.20 1002.68 1002.94 1002.87 1003.78 1003.86 1003.87 1004.09 1005.10 1005.34 1005.01 1004.61 1003.50 1001.43 1000.88 1000.69 1000.36 1000.40 999.96 1000.02 999.75 999.73 1000.02 1000.70 1001.73 1002.91 1003.92 1004.88 1006.01 1007.28 1008.20 1008.91 1009.68 1010.74 1011.56 1012.26 1013.09 1013.66 1014.18 1014.75 1015.47 1016.23 1016.61
1005.28 1003.42 1001.59 1001.43 1001.71 1002.35 1003.28 1003.20 1003.58 1005.11 1005.20 1005.43 1004.62 1003.62 1002.17 1001.23 1001.22 1000.69 1000.24 1000.47 1000.01 999.86 1000.03 1000.27 1000.96 1001.78 1002.81 1003.84 1004.67 1005.53 1006.78 1008.05 1009.00 1009.73 1010.63 1011.67 1012.41 1013.08 1013.74 1014.34 1014.70 1015.22 1015.85 1016.54
1005.65 1004.16 1001.85 1001.76 1002.21 1002.87 1002.62 1002.75 1003.96 1004.26 1004.82 1005.16 1004.93 1004.21 1003.53 1002.11 1002.29 1001.59 1001.17 1001.11 1000.78 1000.63 1000.83 1001.17 1001.89 1002.66 1003.41 1004.16 1005.10 1006.20 1007.08 1007.90 1008.80 1010.12 1010.92 1011.73 1012.38 1013.16 1013.77 1014.36 1014.89 1015.31 1015.69 1016.42
1005.62 1004.46 1002.73 1002.25 1001.84 1001.64 1002.94 1003.08 1003.62 1004.45 1004.90 1005.49 1006.00 1004.48 1003.24 1002.61 1002.43 1003.07 1002.34 1001.99 1001.76 1001.76 1002.18 1002.63 1003.08 1003.91 1004.46 1005.02 1005.94 1006.83 1007.77 1008.65 1009.49 1010.14 1011.15 1011.99 1012.68 1013.21 1013.96 1014.40 1014.87 1015.29 1015.72 1016.42
1005.73 1004.81 1003.44 1002.63 1002.24 1002.11 1001.94 1002.19 1002.73 1003.65 1004.32 1004.86 1004.73 1003.13 1002.68 1003.21 1003.60 1004.05 1003.80 1002.90 1002.78 1002.91 1003.25 1003.70 1004.19 1005.01 1005.59 1006.28 1007.09 1007.64 1008.73 1009.24 1010.14 1010.83 1011.30 1011.94 1012.75 1013.41 1014.21 1014.60 1014.96 1015.24 1015.77 1016.44
1005.28 1004.70 1004.12 1003.12 1002.71 1002.75 1002.60 1002.55 1002.27 1002.64 1003.09 1003.74 1004.25 1003.42 1003.34 1003.94 1004.32 1004.24 1003.94 1003.63 1004.15 1004.35 1004.67 1004.87 1005.21 1006.22 1006.88 1007.59 1008.31 1008.75 1009.89 1010.35 1010.70 1011.42 1012.07 1012.36 1013.03 1013.67 1014.43 1014.76 1014.94 1015.34 1015.76 1016.33
1005.33 1004.88 1004.89 1004.62 1004.16 1003.80 1003.33 1002.73 1002.68 1002.86 1003.10 1003.07 1003.59 1003.28 1004.04 1004.75 1005.29 1004.63 1004.49 1004.55 1004.84 1005.37 1005.70 1006.06 1006.46 1006.91 1007.86 1008.48 1009.24 1010.05 1010.61 1011.55 1011.69 1012.19 1012.64 1013.10 1013.47 1013.93 1014.39 1014.65 1015.00 1015.40 1015.70 1016.03
1006.09 1005.49 1005.33 1004.91 1004.58 1004.25 1004.07 1003.78 1003.39 1003.25 1003.08 1003.26 1003.52 1004.15 1004.62 1004.89 1005.18 1005.44 1005.46 1005.10 1005.44 1005.94 1006.10 1006.71 1007.47 1007.70 1008.07 1008.91 1009.68 1010.81 1011.40 1011.77 1012.41 1012.81 1013.21 1013.50 1013.92 1014.32 1014.57 1014.78 1014.93 1015.29 1015.64 1015.93
1006.59 1006.30 1006.07 1005.54 1005.23 1005.30 1005.22 1005.20 1004.84 1004.38 1004.11 1003.98 1004.24 1004.37 1004.77 1004.53 1004.76 1005.12 1005.46 1005.39 1005.75 1006.11 1006.46 1006.84 1007.85 1008.64 1008.75 1009.03 1010.11 1010.49 1011.36 1012.07 1012.60 1013.27 1013.54 1013.89 1014.15 1014.39 1014.62 1014.85 1015.12 1015.50 1015.62 1015.72
1007.87 1007.30 1006.86 1006.16 1005.65 1005.72 1006.47 1007.18 1006.67 1006.06 1006.25 1006.02 1005.87 1006.37 1006.03 1005.34 1005.28 1005.27 1005.61 1005.89 1006.31 1006.45 1006.27 1007.04 1007.69 1008.35 1009.14 1009.32 1009.71 1010.62 1011.32 1012.32 1012.89 1013.42 1013.75 1013.90 1014.12 1014.35 1014.61 1014.92 1015.12 1015.47 1015.62 1015.72
1007.23 1007.30 1007.31 1006.91 1006.67 1007.22 1007.94 1008.05 1007.87 1007.58 1007.67 1007.57 1007.56 1007.39 1007.03 1006.53 1005.83 1005.75 1005.94 1005.93 1006.25 1006.60 1006.76 1006.99 1007.60 1008.60 1009.30 1010.03 1010.13 1011.05 1011.48 1012.42 1012.97 1013.35 1013.61 1013.84 1014.12 1014.30 1014.53 1014.82 1014.98 1015.11 1015.17 1015.29
1007.07 1007.07 1006.94 1006.95 1007.29 1007.70 1008.09 1008.61 1008.85 1008.71 1008.62 1008.57 1008.56 1008.07 1007.57 1006.71 1006.14 1006.64 1006.98 1006.88 1006.29 1006.43 1006.71 1007.27 1007.61 1008.48 1009.54 1010.15 1010.87 1011.17 1011.82 1012.33 1012.93 1013.36 1013.78 1013.86 1014.03 1014.32 1014.72 1014.86 1014.72 1014.98 1014.94 1014.97
1006.33 1006.59 1007.09 1007.19 1007.39 1008.26 1008.98 1008.74 1009.03 1009.19 1009.33 1009.28 1009.58 1009.23 1008.69 1007.49 1007.36 1007.84 1007.92 1007.82 1007.27 1006.92 1007.10 1007.81 1008.32 1008.99 1010.02 1010.72 1011.07 1011.71 1012.13 1012.30 1012.87 1013.15 1013.33 1013.47 1013.99 1014.28 1014.53 1014.60 1014.58 1014.90 1014.90 1014.62
1006.92 1006.79 1006.93 1007.22 1007.81 1008.91 1009.23 1008.98 1008.92 1009.74 1011.10 1010.11 1010.02 1009.94 1009.72 1009.57 1009.72 1009.31 1008.92 1008.73 1008.37 1008.19 1008.25 1008.61 1009.13 1009.77 1010.86 1011.44 1011.56 1012.01 1012.21 1012.46 1012.75 1012.95 1013.19 1013.54 1013.95 1014.29 1014.38 1014.71 1015.09 1015.19 1014.97 1014.72
1008.25 1008.04 1007.89 1007.87 1008.59 1009.86 1009.69 1009.26 1010.12 1011.26 1010.91 1010.90 1010.70 1010.58 1010.36 1010.06 1009.78 1009.86 1009.77 1009.52 1009.37 1009.27 1009.46 1009.78 1010.14 1010.76 1011.27 1011.56 1011.75 1012.16 1012.59 1013.01 1013.22 1013.45 1013.86 1014.22 1014.55 1014.51 1014.63 1014.90 1015.06 1015.18 1015.02 1014.83
1009.41 1009.61 1009.36 1009.41 1009.98 1010.60 1010.99 1011.40 1011.66 1011.53 1011.58 1011.32 1011.02 1010.62 1010.37 1010.11 1010.07 1010.08 1010.17 1010.16 1010.01 1010.24 1010.37 1010.78 1011.04 1011.33 1011.61 1011.85 1012.11 1012.54 1012.94 1013.33 1013.54 1013.94 1014.46 1014.65 1014.67 1014.60 1014.67 1014.72 1015.00 1014.75 1014.62 1014.68
1010.28 1010.14 1010.07 1010.28 1011.02 1011.28 1011.66 1011.85 1012.12 1012.09 1012.06 1011.79 1011.43 1010.95 1010.59 1010.38 1010.32 1010.36 1010.45 1010.51 1010.65 1010.88 1011.25 1011.39 1011.71 1012.02 1012.42 1012.64 1012.74 1013.05 1013.68 1014.13 1014.27 1014.23 1014.08 1014.45 1014.65 1014.74 1014.76 1014.67 1014.73 1014.72 1014.56 1014.36
1012.16 1011.65 1011.78 1011.51 1011.59 1011.71 1012.11 1012.49 1012.78 1012.48 1012.32 1012.09 1011.72 1011.27 1010.96 1010.73 1010.52 1010.59 1010.73 1010.98 1011.15 1011.32 1011.61 1011.80 1012.04 1012.25 1012.77 1013.10 1013.38 1013.58 1013.81 1014.12 1014.25 1014.28 1014.38 1014.58 1014.73 1014.77 1014.69 1014.58 1014.44 1014.35 1014.26 1014.25
1013.50 1013.75 1013.76 1013.47 1013.70 1013.78 1013.13 1013.22 1013.40 1013.12 1012.92 1012.73 1012.46 1011.95 1011.62 1011.35 1011.03 1010.95 1011.14 1011.25 1011.79 1011.95 1012.04 1012.64 1012.82 1012.91 1013.25 1013.57 1013.71 1013.87 1014.07 1014.23 1014.27 1014.30 1014.47 1014.69 1014.82 1014.87 1014.90 1014.77 1014.55 1014.12 1013.85 1013.65
Thickness
5459 5443 5451 5489 5494 5513 5512 5496 5510 5535 5540 5544 5555 5573 5574 5584 5585 5586 5589 5595 5600 5614 5628 5621 5617 5618 5616 5618 5621 5621 5616 5610 5606 5598 5592 5590 5590 5586 5587 5584 5586 5583 5578 5574
5437 5437 5472 5493 5482 5479 5481 5482 5493 5509 5520 5523 5546 5557 5553 5563 5585 5594 5588 5592 5595 5602 5607 5612 5610 5608 5613 5616 5616 5613 5613 5608 5604 5599 5591 5583 5580 5578 5579 5578 5574 5573 5571 5568
5422 5457 5474 5466 5467 5459 5465 5470 5488 5493 5508 5514 5512 5530 5541 5548 5564 5577 5585 5598 5599 5597 5594 5597 5598 5603 5602 5604 5608 5608 5606 5601 5597 5591 5581 5575 5567 5566 5565 5566 5565 5564 5564 5559
5405 5439 5440 5447 5452 5457 5453 5479 5487 5473 5476 5482 5499 5502 5538 5553 5550 5567 5590 5580 5586 5589 5595 5595 5597 5593 5595 5602 5598 5598 5594 5590 5585 5581 5577 5574 5573 5560 5559 5558 5556 5555 5551 5548
5411 5426 5435 5431 5451 5463 5455 5476 5467 5460 5462 5464 5466 5470 5519 5532 5542 5566 5591 5588 5594 5602 5602 5603 5599 5605 5608 5597 5592 5589 5584 5578 5575 5572 5570 5565 5559 5556 5552 5547 5544 5541 5539 5538
5395 5425 5412 5433 5443 5449 5469 5448 5453 5453 5448 5449 5476 5466 5517 5518 5558 5567 5580 5590 5592 5597 5603 5602 5605 5595 5589 5583 5579 5577 5577 5573 5568 5563 5559 5557 5552 5548 5543 5537 5532 5529 5527 5525
5385 5395 5409 5421 5413 5427 5439 5435 5445 5446 5444 5463 5477 5461 5512 5525 5556 5562 5569 5584 5590 5591 5590 5591 5584 5580 5576 5572 5567 5564 5562 5558 5556 5552 5548 5545 5541 5539 5537 5532 5527 5520 5516 5514
5381 5373 5407 5430 5434 5428 5435 5447 5458 5427 5408 5444 5457 5449 5489 5526 5538 5543 5540 5550 5559 5574 5582 5584 5579 5571 5563 5562 5558 5555 5549 5544 5543 5541 5535 5531 5529 5526 5523 5521 5519 5514 5509 5506
5377 5394 5424 5427 5434 5439 5432 5442 5449 5393 5357 5426 5437 5460 5482 5502 5506 5520 5532 5532 5557 5568 5561 5562 5560 5558 5552 5547 5545 5544 5538 5531 5526 5525 5522 5517 5515 5512 5509 5505 5505 5502 5498 5493
5366 5374 5416 5405 5413 5404 5424 5441 5428 5437 5448 5444 5425 5424 5448 5496 5484 5507 5507 5514 5520 5531 5530 5535 5536 5537 5536 5533 5527 5521 5518 5515 5512 5505 5503 5501 5499 5496 5494 5491 5489 5487 5486 5482
5358 5379 5391 5408 5414 5421 5418 5419 5413 5420 5412 5388 5362 5398 5452 5490 5478 5462 5479 5483 5498 5502 5503 5507 5512 5509 5508 5508 5507 5504 5499 5495 5491 5488 5485 5482 5480 5480 5477 5476 5475 5473 5472 5468
5354 5367 5376 5406 5398 5399 5416 5418 5430 5423 5405 5395 5384 5437 5422 5418 5411 5424 5444 5465 5472 5473 5476 5479 5481 5483 5484 5482 5482 5483 5477 5476 5471 5467 5467 5467 5464 5462 5460 5460 5459 5460 5458 5453
5359 5360 5373 5399 5400 5400 5415 5415 5424 5406 5409 5394 5405 5438 5401 5396 5406 5429 5437 5442 5443 5445 5447 5450 5457 5457 5457 5455 5455 5456 5452 5453 5452 5449 5447 5448 5447 5445 5442 5443 5445 5444 5444 5441
5364 5367 5376 5384 5389 5386 5396 5409 5414 5427 5431 5422 5421 5454 5437 5405 5392 5418 5435 5438 5437 5433 5435 5430 5432 5431 5430 5431 5431 5430 5429 5425 5429 5429 5429 5428 5428 5427 5427 5428 5429 5429 5429 5428
5349 5365 5361 5373 5373 5378 5386 5397 5408 5419 5423 5434 5401 5390 5397 5406 5410 5385 5388 5417 5414 5414 5418 5415 5415 5419 5418 5415 5414 5411 5409 5409 5407 5409 5410 5410 5409 5409 5410 5412 5413 5413 5413 5413
5342 5352 5340 5350 5350 5369 5387 5376 5376 5391 5397 5405 5398 5417 5396 5407 5402 5399 5393 5400 5407 5409 5403 5407 5403 5397 5401 5404 5401 5401 5397 5394 5393 5390 5392 5391 5392 5393 5394 5395 5397 5396 5397 5399
5335 5335 5333 5355 5349 5358 5360 5328 5352 5373 5363 5367 5391 5374 5374 5389 5401 5395 5397 5389 5393 5398 5398 5396 5393 5391 5389 5389 5391 5389 5385 5379 5378 5377 5376 5377 5379 5380 5380 5380 5381 5381 5383 5385
5338 5325 5333 5363 5338 5352 5342 5326 5340 5357 5350 5349 5353 5355 5355 5365 5381 5383 5380 5387 5379 5375 5381 5386 5386 5384 5381 5377 5379 5376 5374 5369 5367 5366 5367 5368 5367 5369 5368 5368 5370 5371 5373 5375
5335 5348 5347 5331 5329 5360 5351 5335 5335 5341 5352 5339 5342 5347 5344 5352 5372 5367 5357 5362 5378 5370 5374 5378 5374 5369 5367 5369 5365 5365 5361 5360 5357 5356 5354 5355 5355 5355 5354 5354 5358 5359 5363 5366
5343 5345 5350 5350 5364 5357 5335 5335 5325 5329 5344 5326 5318 5334 5331 5354 5375 5362 5346 5346 5354 5364 5366 5362 5361 5357 5353 5349 5350 5351 5350 5351 5347 5346 5347 5348 5346 5346 5346 5347 5349 5348 5350 5355
5336 5341 5352 5345 5352 5321 5320 5329 5333 5348 5326 5319 5312 5314 5324 5332 5330 5329 5330 5334 5339 5343 5345 5345 5344 5343 5336 5335 5340 5340 5341 5341 5339 5339 5339 5337 5335 5334 5336 5335 5333 5333 5336 5339
5323 5325 5330 5337 5330 5322 5317 5331 5333 5315 5311 5304 5310 5304 5308 5316 5322 5315 5316 5324 5327 5329 5329 5328 5328 5325 5325 5327 5328 5327 5327 5324 5324 5324 5323 5320 5318 5322 5322 5320 5320 5319 5321 5323
5314 5311 5317 5321 5321 5307 5302 5301 5299 5298 5299 5302 5307 5308 5307 5313 5313 5313 5311 5315 5318 5316 5317 5314 5314 5313 5312 5313 5314 5312 5310 5308 5307 5306 5302 5301 5304 5307 5308 5307 5305 5309 5311 5312
5306 5305 5315 5315 5305 5300 5293 5293 5290 5292 5294 5297 5300 5304 5307 5310 5308 5306 5305 5306 5307 5305 5302 5302 5300 5300 5297 5297 5299 5298 5293 5290 5290 5293 5295 5293 5292 5293 5294 5296 5296 5297 5299 5301
5289 5293 5292 5310 5303 5298 5291 5286 5282 5287 5287 5289 5291 5295 5299 5301 5304 5302 5300 5296 5295 5295 5293 5292 5291 5291 5287 5285 5284 5283 5283 5281 5281 5282 5282 5281 5281 5281 5282 5285 5286 5288 5288 5288
5277 5274 5277 5286 5274 5273 5286 5280 5274 5278 5279 5280 5281 5285 5289 5289 5295 5297 5293 5290 5284 5283 5282 5276 5277 5278 5275 5272 5272 5271 5271 5270 5271 5272 5272 5270 5269 5268 5269 5270 5270 5276 5279 5281